星链-32313 (STARLINK-32313)

导读 | 豆包AI

STARLINK-32313是美国星链计划的卫星,于2024年10月15日发射。星链项目旨在构建全球卫星互联网星座,为偏远地区提供高速网络连接。该卫星入轨后,将补充星链低轨卫星网络,提升系统覆盖容量与服务稳定性,支撑全球宽带通信服务,也延续了美国在低轨卫星通信领域的扩张布局。

Basic Information
目录编号:
61527
目录名称:
STARLINK-32313
国际标识:
2024-183U
轨道中心:
EARTH
卫星名称:
星链-32313
卫星全名:
星链-32313 (STARLINK-32313)
卫星状态:
在轨 (已飞行516 天)
发射日期:
2024-10-15 UTC
国别 :
美国 (US)
星等 :
--
Orbit Information
数据来源 国际轨道数据 AOE轨道数据
星历时间 2026-03-15T14:35:06+0800
6小时前
查看轨道信息
2026-03-11T08:00:00+0800
4天前
查看轨道信息
半长轴 6853.365km 6853.396km
偏心率 0.0001209 0.0001918
轨道倾角 53.161° 53.163°
近地点辐角 103.741° 71.812°
升交点赤经 116.767° 136.623°
平近点角 256.372° 128.904°
近地点 474.399km 473.944km
远地点 476.057km 476.574km
周期 94.106分钟 94.106分钟
每日圈数 15.301957 15.301854
Detailed Information
固有亮度:
5
最大亮度:
2.5
卫星平台:
Starlink V1.0
覆盖范围:
全球
运营商:
太空探索技术公司
运营商所在国:
美国
制造商(研发单位):
太空探索技术公司
制造商所在国:
美国
使用方式:
暂无
Satellite Introduction
Starlink 计划是 SpaceX 推出的全球卫星互联网项目,通过发射低轨道卫星,为全球尤其是偏远地区提供高速、低延迟的互联网服务。自 2019 年起,Starlink 已部署数千颗卫星,旨在缩小全球数字鸿沟,推动互联网普及。该项目还为军事、航空等行业提供通信支持,带来广泛经济效益。
2D Orbit Map
3D Orbit Map
Orbit Altitude Analysis Chart
Orbit Inclination Analysis Chart
Orbit Comprehensive Analysis Chart
View Comprehensive Chart